{"data":{"norad_id":67170,"intl_designator":"2025-303H","name":"STARLINK-35863","alt_names":[],"object_type":"PAYLOAD","status":"ACTIVE","operator":null,"country":"US","launch_date":"2025-12-17","launch_site_code":"AFETR","launch_vehicle":null,"mission":null,"orbit_class":"UNKNOWN","rcs_meters":null,"size_class":null,"mass_kg":null,"dimensions":null,"purposes":["comms"],"wikipedia_slug":null,"has_3d_model":false,"image_url":null,"decayed_at":null,"tle_current":{"epoch":"2026-09-20T08:32:23.934912Z","epoch_age_seconds":91220,"freshness":"FRESH","line1":"1 67170U 25303H   26263.35583258  .00006848  00000+0  25809-3 0  9994","line2":"2 67170  42.9991 291.6187 0001485 261.4030  98.6654 15.27585503 42505","mean_motion":15.27585503,"eccentricity":0.0001485,"inclination_deg":42.9991,"raan_deg":291.6187,"arg_perigee_deg":261.403,"mean_anomaly_deg":98.6654,"bstar":0.00025809,"rev_number":4250,"period_min":94.266409125513,"perigee_km":482.01373443913,"apogee_km":484.05150181572,"semimajor_km":6861.1696181274,"source":"CELESTRAK","updated_at":"2026-09-21T09:00:36.111535Z"}}}